Location: Newark
(51.5114°N, 0.0848°W)
Time: 22:40:36
(UTC+00:00)

N. Korean satellite - Pass Details

Date: 23 October 2019
Orbit: 456 x 506 km, 97.2° (Epoch: 14 November)

Event Time Altitude Azimuth Distance (km) Brightness Sun altitude
Rises 05:03:18 0° 26° (NNE) 2,566 10.6 -15.3°
Reaches altitude 10° 05:05:52 10° 46° (NE) 1,689 10.0 -14.9°
Maximum altitude 05:08:28 18° 92° (E) 1,254 9.8 -14.5°
Drops below altitude 10° 05:11:05 10° 137° (SE) 1,697 9.9 -14.0°
Sets 05:13:39 0° 157° (SSE) 2,582 10.6 -13.6°
